Other Public Products
Issued by NWS Grand Forks, ND

Home | Current Version | Previous Version | Text Only | Print | Product List | Glossary Off
Versions: 1 2 3 4 5 6 7 8 9 10 11 12 13 14 15 16 17 18 19 20 21 22 23 24 25 26 27 28 29 30 31 32 33 34 35 36 37 38 39 40 41 42 43 44 45 46 47 48 49 50

692
FPUS83 KFGF 162110
OPUFGF
PRAIRIE TO PINES WEATHER ROUNDUP
NATIONAL WEATHER SERVICE EASTERN NORTH DAKOTA/GRAND FORKS ND
300 PM CST TUE JAN 16 2018

 **SATELLITE DATA USED TO AUGMENT SKY COVER AT AUTOMATED STATIONS**
 *****  WEATHER ACROSS EASTERN NORTH DAKOTA  *****

CITY           SKY/WX    TMP DP  RH WIND       PRES   REMARKS
GRAND FORKS    PTSUNNY    4  -4  69 S16       30.53F WCI -15
GRND FORKS AFB CLOUDY     6  -5  59 SW12      30.52F WCI  -9
GRND FORKS NWS   N/A      1 N/A N/A S13         N/A  WCI -16
BUXTON         NOT AVBL
DEVILS LAKE    CLOUDY     9  -3  58 S14       30.43F WCI  -7
FARGO          FAIR       3  -7  63 S15       30.60F WCI -16
WAHPETON ARPT  FAIR       5  -8  56 S5        30.63F WCI  -4
$$

 *****  WEATHER ACROSS CENTRAL AND WESTERN NORTH DAKOTA  *****

CITY           SKY/WX    TMP DP  RH WIND       PRES   REMARKS
JAMESTOWN      FAIR       7  -4  60 SW14      30.48F WCI -10
BISMARCK       FAIR      10  -7  46 SW13      30.46F WCI  -5
MINOT          FAIR      12  -5  46 S10G21    30.32F WCI  -1
MINOT AFB      FAIR      12  -4  50 S13       30.31F WCI  -3
GARRISON         N/A     10  -5  50 SW13      30.36F WCI  -5
WILLISTON      FAIR       8  -5  55 SW5       30.30F WCI   0
DICKINSON      FAIR      16  -2  45 S13       30.27F WCI   2
HETTINGER      FAIR      15  -4  42 S12       30.33F WCI   2
$$

 *****  OTHER OBSERVATIONS NORTHEAST NORTH DAKOTA  *****

CITY           SKY/WX    TMP DP  RH WIND       PRES   REMARKS
WALHALLA       FAIR      12  -8  40 SW8       30.43F WCI   1
LANGDON        FAIR       7  -2  66 SW16      30.38F WCI -11
CAVALIER         N/A     10  -4  52 S14G20    30.45F WCI  -5
GRAFTON        FAIR       7  -2  66 S15       30.52F WCI -11
CANDO          FAIR       9  -4  56 SW12      30.42F WCI  -6
FORT TOTTEN      N/A      9  -5  52 S10       29.95S WCI  -5
ROLLA          FAIR       3  -8  60 SW14      30.33F WCI -15
RUGBY          FAIR       9  -4  56 S7G15     30.38F WCI  -3
 ***** THE ABOVE OBSERVATIONS ARE NON NWS ARE NOT QUALITY
        CONTROLLED AND MAY MIS-REPORT RAIN FOR SNOW...
$$

 *****  OTHER OBSERVATIONS SOUTHEAST NORTH DAKOTA *****

CITY           SKY/WX    TMP DP  RH WIND       PRES   REMARKS
COOPERSTOWN    FAIR       5  -4  66 SW14      30.50F WCI -12
VALLEY CITY    FLURRIES   7  -4  61 S15       30.53F WCI -11
OAKES            N/A      7  -4  61 S20       30.56F WCI -13
GWINNER          N/A      5  -6  61 SW14      30.58F WCI -12
SHEYENNE NWR     N/A      7  -6  55 SW12      29.95S WCI  -8
BUFFALO        NOT AVBL
WYNDMERE       NOT AVBL
 ***** THE ABOVE OBSERVATIONS ARE NON NWS ARE NOT QUALITY
       CONTROLLED AND MAY MIS-REPORT RAIN FOR SNOW...
$$

  *****  WEATHER ACROSS NORTHERN MINNESOTA  *****

CITY           SKY/WX    TMP DP  RH WIND       PRES   REMARKS
FLAG ISLAND    FAIR       5  -6  61 SW15      30.41F WCI -13
WARROAD        FAIR       3  -8  60 SW9       30.47F WCI -11
ROSEAU         FAIR       3  -8  60 SW14        N/A  WCI -15
HALLOCK        FAIR       3  -4  72 S20       30.49F WCI -18
THF RVR FALLS  FAIR      -2 -10  69 S14       30.54F WCI -21
HALSTAD        NOT AVBL
FOSSTON        FAIR      -4 -13  65 S13       30.55F WCI -23
BAUDETTE       FAIR       5  -7  57 SW8       30.45F WCI  -8
WASKISH        FAIR       3  -9  55 SW13      30.51S WCI -14
CROOKSTON      FAIR       0  -8  71 S15       30.57F WCI -20
$$
  *****  WEATHER ACROSS CENTRAL AND WEST MINNESOTA  *****

CITY           SKY/WX    TMP DP  RH WIND       PRES   REMARKS
BEMIDJI        FAIR       6 -10  47 W9        30.51F WCI  -7
PARK RAPIDS    FAIR       7  -2  66 W7        30.52F WCI  -5
WADENA         FAIR       3  -8  60 W7        30.57S WCI  -9
DETROIT LAKES  FAIR       3  -9  55 SW6       30.58S WCI  -8
MOORHEAD       FAIR       1  -9  60 CALM      30.61F
FERGUS FALLS   FAIR       0  -9  65 S3        30.66F
ELBOW LAKE     FAIR       0  -8  68 SW5       30.62F HAZE    WCI -10
MORRIS MN      FAIR       5  -4  66 W7        30.62F WCI  -7
STAPLES        FAIR       3  -8  60 W7        30.57F WCI  -9
WHEATON        FAIR       5  -8  56 CALM      30.66F
$$
  *****  WEATHER ELSEWHERE ACROSS MINNESOTA  *****

CITY           SKY/WX    TMP DP  RH WIND       PRES   REMARKS
DULUTH         FAIR      10   1  67 NW9       30.47F WCI  -3
INTRNTL FALLS  FAIR       5  -8  55 SW9       30.47F WCI  -9
ELY            FAIR       5  -2  72 W8        30.46F WCI  -8
CLOQUET        FAIR      10   0  61 SW7       30.50F WCI   0
BRAINERD       FAIR       7  -3  64 SW3       30.56F
HIBBING        FAIR       6  -1  73 W7        30.50F WCI  -6
ALEXANDRIA     FAIR       4  -5  66 W6        30.58F WCI  -7
SAINT CLOUD    FAIR       6  -3  66 NW7       30.61F WCI  -6
MINNEAPOLIS    FAIR       7  -1  70 W8        30.63F WCI  -6
$$

  *****  WEATHER ACROSS SOUTH DAKOTA  *****

CITY           SKY/WX    TMP DP  RH WIND       PRES   REMARKS
SIOUX FALLS    FAIR       6  -1  73 W6        30.65F WCI  -4
BROOKINGS      FAIR       9   1  70 W6        30.61F WCI  -1
WATERTOWN      FAIR       8   1  73 SW8       30.57F WCI  -4
HURON          FAIR       8  -1  66 S6        30.64F WCI  -2
SISSETON         N/A     10  -1  61 SW5       30.61F WCI   2
ABERDEEN       FAIR      10  -3  55 S10       30.60F WCI  -4
MITCHELL       FAIR       6  -2  69 SW7       30.67F WCI  -6
PIERRE         FAIR      15  -1  49 S13       30.53F WCI   1
MOBRIDGE       FAIR      15  -4  42 S15       30.47F WCI   0
RAPID CITY     FAIR      26   6  42 S15       30.32F WCI  14
$$

  *****  SOME WEATHER IN NEARBY STATES *****

CITY           SKY/WX    TMP DP  RH WIND       PRES   REMARKS
GLASGOW MT     FAIR       7  -1  70 E16       30.18F WCI -11
GREAT FALLS MT FAIR      41  23  48 SW20      30.03S
CHEYENNE WY    FAIR      33  -1  23 S13       30.26F WCI  24
SCOTTSBLUFF NE FAIR      11   3  70 SE7       30.38F WCI   0
OMAHA NE       FAIR      11 -17  27 N6        30.72  WCI   1
DES MOINES IA  FLURRIES   6  -1  73 NW12      30.68R WCI  -9
DAVENPORT IA   PTSUNNY   16   9  74 W12       30.59R HAZE    WCI   3
CHICAGO IL     PTSUNNY   25  12  58 NW14      30.45R WCI  13
EAU CLAIRE WI  FAIR      11   5  77 W12       30.56S WCI  -3
LA CROSSE WI   FAIR      15   6  67 NW9       30.59R WCI   3
$$

  *****  SOME NATIONAL WEATHER *****

CITY           SKY/WX    TMP DP  RH WIND       PRES   REMARKS
LA GUARDIA NY  CLOUDY    32  26  78 NE9       30.42S WCI  24
RALEIGH NC     PTSUNNY   46  19  34 W3        30.34F
ATLANTA GA     CLOUDY    48  31  51 SW8       30.31F
NEW ORLEANS LA CLOUDY    41  32  70 N15G26    30.43R
OKLAHOMA CITY  FAIR      19  -4  36 N16       30.70F WCI   4
ALBUQUERQUE NM PTSUNNY   33  18  53 SW3       30.42F
SALT LAKE CITY FAIR      50  25  37 N7        30.28F
LOS ANGELES CA PTSUNNY   68  58  70 W6        30.11F HAZE
BOISE ID       PTSUNNY   43  36  76 S13       30.31F
SEATTLE WA     FAIR      54  40  59 SW16      30.22S
$$

*** WEATHER ACROSS MANITOBA...SASKATCHEWAN AND ONTARIO ***
                ***ONTARIO***

CITY           SKY/WX    TMP DP  RH WIND       PRES   REMARKS
GERALDTON      CLOUDY     7   3  85 SW13      30.28F WCI  -9
THUNDER BAY    PTSUNNY   12   5  73 W13       30.44F WCI  -3
SIOUX LOOKOUT  CLOUDY     3  -6  66 SW9       30.31F WCI -11
TORONTO        MOCLDY    25  12  58 SW5       30.33S WCI  19
BIG TROUT LK   CLOUDY     9   0  66 W16G22    29.87F WCI  -9
PICKLE LAKE    FLURRIES   1  -4  78 SW12G20   30.13F WCI -15
DRYDEN         CLOUDY     3  -6  66 SW14G20   30.33F WCI -15
KENORA         PTSUNNY    0  -8  71 S14G22    30.35F WCI -19
$$
                *** MANITOBA***

CITY           SKY/WX    TMP DP  RH WIND       PRES   REMARKS
BRANDON        MOSUNNY    9  -2  61 SW12      30.30F WCI  -6
DAUPHIN        SUNNY     21   1  42 SW22G28   30.16F WCI   5
ISLAND LAKE    MOCLDY    12   0  57 SW16G28   29.93F WCI  -4
PILOT MOUND      N/A      5  -2  72 S16         N/A  WCI -14
THE PAS        MOSUNNY   19  -2  38 SW15G23   29.97F WCI   5
THOMPSON       PTCLDY    16   5  62 W12G22    29.79F WCI   3
WINNIPEG       MOSUNNY    7  -2  66 S22G28    30.38F WCI -14
LYNN LAKE      CLEAR     16   9  73 W7        29.76F WCI   6
CHURCHILL      CLOUDY    12  10  92 NW12G20   29.64S WCI  -2
GILLAM         CLOUDY    10   1  67 W14G22    29.71F WCI  -5
$$
                ***SASKATCHEWAN***

CITY           SKY/WX    TMP DP  RH WIND       PRES   REMARKS
ESTEVAN        MOSUNNY   10  -4  52 S14G21    30.25F WCI  -5
KINDERSLEY     MOSUNNY   21   7  53 SW13      29.93F WCI   9
LLOYDMINSTER   MOSUNNY   18   7  62 S7        29.87F WCI   8
PRINCE ALBERT  MOSUNNY   14   0  52 SW9       30.01F WCI   2
REGINA         MOSUNNY   14   3  62 SE16      30.12F WCI  -2
YORKTON        SUNNY     18   3  53 S8        30.13F WC



USA.gov is the U.S. government's official web portal to all federal, state and local government web resources and services.